RH
40 64 64 53 54 61 65 65 72 64 67 56 69 83 86 86 76 71 70 67 75 91 72 62 53 55 67 62 64 70 90 96 92 85 84 80 83 79 77 70 78 87 83 74
70 60 56 65 69 70 68 70 71 72 77 52 74 73 84 74 78 79 70 75 100 97 81 73 60 69 65 64 72 91 92 84 81 83 79 84 87 78 75 84 86 84 74 56
59 66 73 77 78 70 74 80 75 80 97 88 90 78 74 72 71 76 70 74 86 86 82 69 66 59 59 67 82 84 76 81 81 84 91 89 77 78 84 90 89 74 54 38
65 72 81 83 73 75 77 80 72 85 84 79 80 74 69 68 80 67 68 63 64 62 61 59 53 57 70 76 76 80 81 79 84 83 82 80 88 94 99 89 73 50 41 30
75 76 84 84 83 81 85 79 64 82 75 71 62 62 66 73 74 64 53 51 59 59 56 56 60 73 77 76 83 83 84 80 78 82 82 80 92 100 81 63 44 49 46 28
88 82 84 89 84 87 83 68 88 81 64 61 63 67 66 66 75 70 68 64 56 59 55 61 71 75 80 87 79 77 82 91 88 77 86 100 85 62 55 55 54 38 24 16
86 83 87 91 84 83 87 95 76 70 68 71 74 78 98 99 87 77 68 62 57 53 60 67 68 74 86 82 82 81 80 83 90 97 85 75 70 52 53 55 42 36 27 16
87 84 82 82 80 94 82 73 68 70 71 78 77 96 100 92 70 67 60 52 55 62 69 68 72 84 81 76 77 82 80 89 89 95 95 72 57 57 46 38 28 22 18 15
81 74 66 62 65 60 68 80 87 86 83 78 100 98 81 61 55 48 48 52 62 65 65 77 85 84 82 78 74 80 90 90 90 76 63 66 56 39 32 24 17 15 13 11
74 72 56 56 57 74 82 80 81 78 77 88 83 70 56 52 48 50 59 66 65 72 83 83 85 82 73 76 81 86 90 82 66 58 55 37 20 22 23 18 15 14 12 10
66 71 79 81 85 86 68 66 69 75 74 77 62 58 59 54 60 72 71 72 78 79 84 88 83 77 82 87 82 75 74 62 49 35 35 40 33 16 14 13 11 10 9 9
89 100 94 83 74 73 77 85 86 75 72 64 56 57 67 74 74 74 75 84 84 82 83 77 75 76 78 74 66 64 48 40 38 44 41 40 25 18 12 11 9 9 9 9
94 78 75 77 84 92 100 92 87 81 62 57 67 72 76 79 79 80 88 84 81 80 78 70 73 71 79 69 50 36 34 34 27 21 17 14 12 11 9 9 10 10 9 8
87 86 83 89 86 90 74 64 60 61 65 70 75 80 77 68 76 81 78 80 76 67 68 72 69 66 59 55 56 45 34 25 20 13 11 10 9 10 11 10 9 8 8 8
96 95 94 97 92 66 57 61 68 72 75 74 68 69 77 81 84 84 75 68 69 72 60 64 70 64 60 39 29 21 18 14 11 10 9 9 9 10 9 8 8 8 8 7
82 86 88 79 66 64 69 79 82 78 68 68 79 86 92 93 77 71 75 74 68 67 68 61 56 39 25 21 14 13 12 11 9 8 9 8 8 8 7 8 8 7 5 5
88 83 78 75 77 85 86 78 70 66 84 86 79 81 81 69 68 76 83 78 70 59 52 40 25 21 19 14 11 10 9 8 8 8 8 7 7 7 7 6 5 5 5 5
82 78 80 85 85 79 69 72 90 91 85 83 84 71 66 79 90 84 79 74 57 33 22 17 16 14 11 9 9 8 9 8 7 6 6 6 7 6 5 5 5 5 6 6
84 87 89 82 73 79 89 92 91 90 85 74 64 70 78 79 67 57 44 32 24 18 14 12 10 9 9 8 8 8 7 6 6 6 6 5 4 4 5 5 5 6 6 6
93 85 81 85 88 91 96 94 84 75 69 67 74 71 60 52 48 36 23 19 14 10 10 9 8 8 8 7 6 6 5 5 5 4 4 4 4 5 5 5 5 5 5 4
86 86 93 100 100 92 81 74 76 75 67 60 53 52 44 37 32 20 14 12 11 10 8 7 7 6 6 6 6 5 4 4 4 4 4 5 5 5 5 4 4 4 4 5
100 100 96 86 78 71 71 69 64 56 52 51 47 34 32 28 20 14 12 9 8 7 6 6 6 6 5 4 4 4 4 4 5 5 4 4 4 4 4 4 5 5 5 5
91 85 77 70 66 61 61 55 52 49 41 34 34 29 24 13 10 10 8 8 6 6 6 6 5 4 4 4 4 4 4 5 4 4 3 3 4 4 5 5 5 5 5 5
74 71 68 60 62 56 49 50 45 35 32 30 23 16 11 9 8 7 7 6 5 5 4 3 3 3 3 4 4 4 4 4 3 3 4 4 4 4 4 4 4 4 4 4
64 64 63 59 58 47 41 40 30 31 26 18 13 9 8 7 7 6 6 5 4 4 3 3 3 3 4 4 3 3 3 3 4 4 4 4 4 4 3 3 3 3 3 3
59 54 53 48 39 36 35 30 28 19 14 12 9 7 7 7 6 5 4 4 3 3 3 4 4 3 3 3 3 3 3 4 4 3 3 3 2 2 2 2 2 2 2 3
51 42 38 33 36 31 27 20 14 11 9 7 6 7 6 6 4 4 3 3 3 4 4 3 3 3 2 2 3 3 3 3 2 2 2 2 2 2 2 2 2 2 2 2
Wind_Speed
25 26 25 24 24 23 23 24 27 26 28 30 30 33 36 39 42 45 47 48 50 56 60 63 66 70 75 78 81 84 87 87 85 85 87 88 91 97 100 104 108 111 112 108
27 27 26 22 25 26 26 28 28 29 33 32 36 37 40 43 46 49 50 51 54 60 66 68 71 77 79 81 84 87 87 86 86 89 90 92 97 101 106 108 113 112 109 108
29 27 25 27 29 26 28 32 31 32 34 37 41 44 46 48 51 52 53 54 59 65 70 73 76 79 80 84 88 88 87 86 89 91 94 98 103 106 110 112 112 109 108 109
30 28 28 33 31 32 33 34 34 36 40 43 44 47 48 49 50 54 57 61 66 70 74 77 78 81 85 89 88 87 87 89 90 95 100 103 106 110 113 111 109 108 109 111
32 32 34 35 36 36 37 40 37 42 45 48 48 50 52 50 55 58 61 65 69 73 74 78 81 85 89 88 87 88 91 93 97 101 104 106 110 111 110 109 108 111 114 110
36 37 37 38 39 41 42 43 43 49 49 50 52 54 60 59 62 66 68 71 73 74 77 82 86 90 89 88 89 93 96 99 102 105 109 112 109 108 106 110 112 112 112 108
38 39 40 41 41 42 45 48 49 51 53 56 58 58 61 65 68 71 72 73 76 79 83 85 92 90 90 91 94 98 101 103 105 108 110 109 108 108 112 113 111 111 110 110
39 40 41 43 43 47 48 49 51 55 57 59 60 61 64 69 70 71 73 76 81 83 88 92 93 91 90 93 100 104 106 108 111 113 113 111 110 112 114 113 110 109 108 109
43 43 42 43 45 47 50 53 55 57 59 58 61 65 69 72 74 77 79 82 84 87 92 94 93 92 97 103 106 107 110 112 112 110 111 115 115 112 113 111 109 108 106 102
44 45 44 47 49 51 54 56 59 61 61 65 68 73 75 76 80 83 85 87 89 94 94 93 94 98 103 106 108 111 114 112 111 110 113 112 110 111 113 110 107 105 99 95
47 48 49 49 48 54 57 59 62 65 67 71 74 77 80 83 86 87 89 92 96 95 95 96 99 105 108 110 112 111 112 113 111 111 112 118 117 113 110 108 103 97 91 86
48 48 53 56 56 60 62 66 69 71 72 75 81 83 85 87 88 92 96 97 96 97 98 102 106 109 112 114 111 113 115 113 113 117 118 121 116 113 107 100 93 87 83 79
54 57 58 61 63 64 68 72 73 75 79 83 85 87 88 91 95 96 96 97 98 102 106 109 111 112 113 113 112 111 114 117 116 114 110 108 105 100 94 91 88 85 79 73
60 62 62 67 66 72 75 77 79 81 83 86 87 90 94 97 96 97 99 101 106 108 111 112 113 113 112 114 117 118 116 116 115 110 104 99 95 94 90 86 81 77 73 70
65 68 69 71 76 79 80 80 83 85 86 89 93 96 95 96 98 100 106 110 112 113 113 113 117 116 116 115 114 111 109 111 107 104 102 97 92 88 85 79 75 72 68 66
69 71 75 80 82 82 83 84 86 90 94 95 93 94 97 100 105 109 112 115 116 118 119 116 117 112 111 112 111 110 104 103 100 96 93 89 84 79 76 73 71 68 64 62
74 77 80 81 83 84 86 91 95 95 93 94 95 98 103 107 111 114 117 118 121 120 117 115 112 112 111 107 106 107 102 97 92 86 83 80 77 75 71 68 66 65 63 61
78 80 81 83 86 91 94 94 93 95 96 99 102 106 109 112 115 118 120 122 119 114 113 111 111 110 108 103 99 94 90 87 83 80 77 74 72 71 67 66 65 63 61 58
80 81 85 90 93 91 93 95 96 98 102 106 109 112 114 116 116 117 115 113 114 111 110 109 106 103 101 95 88 85 82 80 79 76 73 70 68 68 65 64 62 59 57 54
85 89 92 91 93 94 96 99 102 105 108 111 112 114 115 113 114 115 113 112 111 108 107 105 101 95 91 87 82 80 78 74 72 71 69 67 66 64 61 59 58 55 53 52
90 91 91 93 95 98 102 105 108 110 113 114 111 112 112 113 114 113 111 109 109 106 104 97 91 86 83 81 79 76 73 72 70 68 66 63 61 59 57 56 55 54 52 51
89 91 95 98 101 104 107 109 111 113 111 111 112 110 112 114 113 110 109 104 100 96 92 88 84 82 78 75 73 71 70 67 66 64 61 59 57 56 56 55 54 53 51 49
94 97 101 103 106 108 109 108 108 109 110 110 113 113 113 109 106 104 101 96 91 87 83 80 78 74 72 71 69 67 66 64 62 61 59 58 56 55 54 52 50 48 47 46
100 104 105 106 106 107 107 107 109 111 112 112 111 110 108 104 102 96 90 86 83 81 77 72 71 69 67 66 64 63 62 61 61 60 59 57 54 52 51 50 49 48 45 44
102 103 104 103 106 106 106 109 111 112 112 110 109 105 102 97 90 87 85 82 79 76 73 71 68 66 63 62 60 59 58 59 58 57 56 55 53 52 51 50 48 46 44 43
101 101 103 105 106 107 110 110 112 110 107 105 103 100 93 88 86 83 81 77 74 72 69 67 66 64 62 60 59 58 56 55 54 53 53 51 48 47 47 46 46 45 44 42
101 102 105 105 107 109 111 109 106 103 102 100 94 89 85 83 81 77 75 73 70 69 67 65 64 62 60 59 57 55 55 54 52 49 48 47 45 44 44 44 43 42 42 40
Wind_Direction
199 195 200 205 213 223 233 240 245 256 263 270 272 278 285 287 289 289 292 290 289 291 293 296 299 302 304 308 309 310 311 313 313 313 314 313 313 313 313 314 315 315 314 314
196 201 209 216 228 232 241 249 253 262 267 278 282 283 285 286 288 290 290 290 288 288 291 294 298 301 306 308 308 309 312 312 313 313 312 312 312 313 314 314 315 316 315 314
206 211 219 229 236 246 252 256 261 269 275 279 282 286 289 292 293 293 289 287 285 287 292 297 301 304 306 307 309 311 311 313 312 312 312 312 313 314 316 315 315 315 315 316
218 223 230 241 247 251 257 264 268 274 277 279 282 285 291 297 296 292 291 289 290 294 297 300 304 306 307 310 310 310 311 311 312 311 311 314 315 315 315 316 315 315 318 318
229 232 238 247 255 261 263 267 272 278 280 282 285 290 293 296 295 294 292 293 296 297 300 304 306 308 309 309 310 310 309 309 309 313 314 313 315 314 315 316 316 317 317 317
235 241 243 250 257 264 271 275 280 279 281 286 289 292 293 294 295 295 297 297 299 301 304 305 308 309 308 308 309 309 310 310 310 312 314 314 313 314 315 317 318 317 318 318
242 246 252 259 266 271 274 276 278 281 286 289 293 296 296 294 295 297 299 301 302 303 304 306 309 308 308 309 309 308 309 311 312 312 312 314 315 315 317 316 317 319 319 318
251 255 259 265 269 271 274 278 282 285 287 289 291 291 291 293 296 300 301 302 302 304 306 308 308 307 306 306 308 310 311 312 313 314 315 315 315 315 315 317 317 317 317 315
258 261 263 266 269 273 279 282 283 285 286 286 285 288 291 295 298 299 300 300 302 304 306 306 306 306 307 309 310 312 311 311 312 312 314 315 314 314 316 316 316 317 316 316
262 264 267 269 273 278 279 279 281 282 283 284 286 289 294 297 298 299 301 302 304 305 306 306 305 305 306 308 309 311 311 310 312 313 314 314 314 315 316 316 315 314 314 314
265 270 273 275 275 276 277 280 283 285 285 287 291 294 295 297 299 300 302 303 305 306 306 306 305 306 308 309 309 309 311 311 311 312 315 316 316 316 315 314 313 313 313 315
270 273 274 276 279 283 286 286 284 284 287 291 294 296 297 298 300 302 303 304 305 305 305 305 307 307 308 309 310 312 313 312 313 313 313 313 312 313 312 312 313 314 315 316
269 271 276 281 285 285 284 283 287 290 291 293 295 297 299 300 302 302 303 304 304 304 306 306 307 308 308 309 310 311 313 314 314 312 312 312 312 311 311 312 314 313 314 314
272 276 279 282 281 282 284 287 289 291 293 295 297 298 299 300 302 303 303 304 305 305 306 307 307 308 309 311 311 311 312 312 313 313 310 310 310 312 312 312 312 312 313 313
275 278 280 280 281 283 287 289 291 293 295 296 298 299 300 301 302 303 303 304 305 305 307 308 308 309 310 309 309 310 312 312 310 310 309 310 310 309 309 311 312 312 313 312
275 278 279 280 284 288 290 292 294 295 298 299 299 300 301 301 302 303 305 305 307 308 308 307 307 308 309 310 312 311 311 310 309 308 308 308 310 310 311 312 311 311 312 311
278 279 281 284 287 290 292 293 296 298 297 298 300 300 302 302 303 305 306 306 306 307 307 308 308 309 309 310 312 311 310 308 308 308 308 309 309 309 310 310 310 311 311 310
279 281 284 287 290 292 295 296 296 297 299 300 300 301 303 304 304 304 305 304 305 307 308 309 309 310 310 310 309 308 309 308 308 309 309 309 308 308 310 310 309 309 309 309
282 285 287 290 292 294 295 295 297 297 299 301 302 303 303 303 303 304 305 306 307 308 308 309 309 310 309 309 309 308 308 308 307 308 308 308 308 308 309 308 308 308 308 308
285 287 289 291 292 294 295 295 296 298 300 302 302 301 301 303 304 306 307 307 308 309 309 309 309 308 309 308 308 308 308 307 307 307 307 308 307 307 307 307 307 307 307 307
286 287 289 290 291 292 294 296 298 298 299 300 300 303 304 305 306 308 309 309 308 308 308 307 308 308 308 309 308 308 307 307 307 307 307 307 306 306 306 306 306 305 305 305
286 287 287 289 292 293 295 296 297 298 299 301 302 304 305 306 307 308 308 308 308 307 306 308 308 307 308 307 307 306 306 306 306 306 306 306 306 306 305 304 304 304 304 303
284 286 289 291 293 294 296 297 298 301 302 303 304 305 305 306 307 308 306 306 305 307 307 308 306 307 307 307 306 306 306 306 306 306 306 306 306 305 304 304 304 303 303 303
288 289 291 292 294 295 297 300 301 301 302 304 303 303 304 307 307 306 306 305 307 307 307 307 307 307 306 306 306 306 306 306 306 306 306 307 306 305 304 304 304 304 303 303
289 291 292 293 294 297 299 299 301 302 302 302 302 304 306 307 306 305 306 307 308 308 308 308 308 308 307 307 306 305 306 305 305 305 305 305 306 304 304 303 304 304 305 304
290 291 292 295 297 298 298 300 300 300 300 301 303 305 306 305 305 306 307 308 308 309 309 309 308 308 308 307 307 308 307 306 305 305 304 304 304 303 303 302 302 303 302 303
291 293 295 297 296 296 298 298 298 299 300 302 304 305 304 304 306 307 307 308 309 309 309 309 309 309 308 309 309 309 308 308 307 306 306 306 306 304 303 303 302 302 301 300